TAR37LC DTMB-DTTA

Flight info

Callsign TAR37LC
Flight time 0h 21m
Altitude 12000
Route LARBI1B LARBI DCT GIBLI
Aircraft A320/M-SDE3FGHIRWY/LB1

Departure

Time 2026-04-30 07:34
Airport Monastir Habib Bourguiba International Airport (DTMB)

Arrival

Time 2026-04-30 07:56
Airport Tunis Carthage International Airport (DTTA)
Time Latitude Longitude Altitude Speed Heading
2026-04-30 07:26 35.76107 10.75841 12 ft 0 kts 343°
2026-04-30 07:31 35.76123 10.75845 12 ft 3 kts 41°
2026-04-30 07:32 35.76112 10.75903 11 ft 11 kts 108°
2026-04-30 07:32 35.76112 10.76019 11 ft 14 kts 85°
2026-04-30 07:32 35.76131 10.76124 11 ft 12 kts 79°
2026-04-30 07:32 35.76118 10.76205 12 ft 9 kts 143°
2026-04-30 07:33 35.76065 10.76238 11 ft 8 kts 159°
2026-04-30 07:33 35.76010 10.76246 11 ft 8 kts 190°
2026-04-30 07:33 35.75982 10.76213 10 ft 0 kts 249°
2026-04-30 07:33 35.75977 10.76198 10 ft 17 kts 251°
2026-04-30 07:34 35.75861 10.75710 10 ft 96 kts 253°
2026-04-30 07:34 35.75615 10.74677 21 ft 153 kts 255°
2026-04-30 07:34 35.75213 10.73417 505 ft 162 kts 229°
2026-04-30 07:34 35.74212 10.72848 1111 ft 168 kts 176°
2026-04-30 07:35 35.73189 10.73494 1738 ft 173 kts 125°
2026-04-30 07:35 35.72891 10.74965 2123 ft 194 kts 79°
2026-04-30 07:35 35.73616 10.76455 2389 ft 221 kts 36°
2026-04-30 07:35 35.75134 10.77080 2704 ft 247 kts 356°
2026-04-30 07:36 35.76780 10.76410 3236 ft 264 kts 322°
2026-04-30 07:36 35.78113 10.74826 4276 ft 262 kts 310°
2026-04-30 07:36 35.79333 10.73201 5364 ft 263 kts 320°
2026-04-30 07:36 35.80853 10.72202 6278 ft 268 kts 337°
2026-04-30 07:37 35.82582 10.71407 7215 ft 271 kts 337°
2026-04-30 07:37 35.84358 10.70587 8121 ft 274 kts 337°
2026-04-30 07:37 35.86154 10.69753 9036 ft 278 kts 337°
2026-04-30 07:37 35.87975 10.68907 9932 ft 282 kts 337°
2026-04-30 07:38 35.89855 10.68033 10465 ft 299 kts 336°
2026-04-30 07:38 35.91201 10.67404 10673 ft 315 kts 336°
2026-04-30 07:38 35.94048 10.66078 11151 ft 340 kts 337°
2026-04-30 07:38 35.96289 10.65038 11764 ft 347 kts 336°
2026-04-30 07:39 35.98553 10.63990 11973 ft 348 kts 336°
2026-04-30 07:39 36.00856 10.62921 12033 ft 365 kts 336°
2026-04-30 07:39 36.03292 10.61782 12043 ft 379 kts 336°
2026-04-30 07:39 36.05772 10.60623 12036 ft 382 kts 336°
2026-04-30 07:40 36.08259 10.59460 12031 ft 383 kts 337°
2026-04-30 07:40 36.10743 10.58306 12031 ft 383 kts 337°
2026-04-30 07:40 36.13244 10.57148 12027 ft 383 kts 337°
2026-04-30 07:40 36.15733 10.55998 12031 ft 383 kts 337°
2026-04-30 07:41 36.18203 10.54857 12033 ft 383 kts 337°
2026-04-30 07:41 36.20693 10.53695 12033 ft 379 kts 337°
2026-04-30 07:41 36.23076 10.52574 12032 ft 358 kts 336°
2026-04-30 07:41 36.25372 10.51485 12035 ft 349 kts 336°
2026-04-30 07:42 36.27623 10.50409 12037 ft 347 kts 336°
2026-04-30 07:42 36.29868 10.49329 12042 ft 346 kts 336°
2026-04-30 07:42 36.32111 10.48245 12042 ft 346 kts 336°
2026-04-30 07:42 36.34351 10.47164 12043 ft 345 kts 336°
2026-04-30 07:43 36.36595 10.46086 12044 ft 345 kts 336°
2026-04-30 07:43 36.38837 10.45012 12046 ft 345 kts 336°
2026-04-30 07:43 36.41085 10.43948 12046 ft 345 kts 336°
2026-04-30 07:43 36.43331 10.42887 12048 ft 345 kts 336°
2026-04-30 07:44 36.45632 10.41799 11980 ft 360 kts 336°
2026-04-30 07:44 36.47947 10.40708 11579 ft 353 kts 336°
2026-04-30 07:44 36.50245 10.39627 10990 ft 350 kts 336°
2026-04-30 07:44 36.52487 10.38575 10764 ft 337 kts 336°
2026-04-30 07:45 36.53913 10.37905 10692 ft 328 kts 336°
2026-04-30 07:45 36.56008 10.36919 10568 ft 314 kts 336°
2026-04-30 07:45 36.58000 10.35977 10447 ft 302 kts 336°
2026-04-30 07:45 36.60544 10.34776 10237 ft 288 kts 336°
2026-04-30 07:46 36.61799 10.34184 10081 ft 284 kts 336°
2026-04-30 07:46 36.64237 10.33033 9881 ft 282 kts 336°
2026-04-30 07:46 36.65468 10.32450 9766 ft 283 kts 336°
2026-04-30 07:46 36.67927 10.31282 9154 ft 285 kts 336°
2026-04-30 07:47 36.69157 10.30698 8838 ft 285 kts 336°
2026-04-30 07:47 36.71022 10.29816 8461 ft 283 kts 336°
2026-04-30 07:47 36.72840 10.28958 8073 ft 281 kts 336°
2026-04-30 07:47 36.74685 10.28082 7656 ft 280 kts 336°
2026-04-30 07:48 36.76478 10.27232 7250 ft 279 kts 337°
2026-04-30 07:48 36.78307 10.26365 6855 ft 277 kts 337°
2026-04-30 07:48 36.80083 10.25523 6499 ft 275 kts 337°
2026-04-30 07:48 36.81888 10.24665 6076 ft 273 kts 337°
2026-04-30 07:49 36.83637 10.23842 5657 ft 272 kts 339°
2026-04-30 07:49 36.85489 10.23415 5256 ft 273 kts 356°
2026-04-30 07:49 36.87373 10.23656 4793 ft 271 kts
2026-04-30 07:49 36.89212 10.24104 4074 ft 269 kts
2026-04-30 07:50 36.91020 10.24636 3540 ft 261 kts 22°
2026-04-30 07:50 36.92301 10.26013 3477 ft 237 kts 61°
2026-04-30 07:50 36.92596 10.27949 3451 ft 226 kts 92°
2026-04-30 07:50 36.92655 10.29886 3202 ft 221 kts 71°
2026-04-30 07:51 36.93321 10.31516 3050 ft 202 kts 45°
2026-04-30 07:51 36.94475 10.32360 2741 ft 192 kts
2026-04-30 07:51 36.95762 10.32119 2331 ft 189 kts 328°
2026-04-30 07:51 36.96634 10.30934 2014 ft 187 kts 296°
2026-04-30 07:52 36.96979 10.29405 2005 ft 178 kts 274°
2026-04-30 07:52 36.96844 10.27937 1933 ft 164 kts 252°
2026-04-30 07:52 36.96342 10.26724 1846 ft 153 kts 232°
2026-04-30 07:52 36.95592 10.25840 1728 ft 147 kts 213°
2026-04-30 07:53 36.94676 10.25315 1578 ft 144 kts 194°
2026-04-30 07:53 36.93709 10.25047 1431 ft 142 kts 192°
2026-04-30 07:53 36.92758 10.24787 1240 ft 139 kts 192°
2026-04-30 07:53 36.91821 10.24531 1057 ft 137 kts 192°
2026-04-30 07:54 36.90888 10.24277 881 ft 137 kts 192°
2026-04-30 07:54 36.89961 10.24024 710 ft 136 kts 192°
2026-04-30 07:54 36.89051 10.23776 527 ft 135 kts 193°
2026-04-30 07:54 36.88122 10.23527 389 ft 135 kts 192°
2026-04-30 07:55 36.87193 10.23278 186 ft 135 kts 194°
2026-04-30 07:55 36.86297 10.23024 48 ft 133 kts 194°
2026-04-30 07:55 36.85487 10.22798 32 ft 100 kts 191°
2026-04-30 07:55 36.84977 10.22663 33 ft 50 kts 192°
2026-04-30 07:56 36.84792 10.22612 32 ft 18 kts 192°
2026-04-30 07:56 36.84654 10.22574 29 ft 22 kts 192°
2026-04-30 07:56 36.84522 10.22467 29 ft 23 kts 235°
2026-04-30 07:56 36.84482 10.22272 30 ft 24 kts 271°
2026-04-30 07:57 36.84502 10.22145 30 ft 11 kts 284°
2026-04-30 07:57 36.84542 10.22085 30 ft 10 kts 332°
2026-04-30 07:57 36.84605 10.22087 30 ft 9 kts 19°
2026-04-30 07:57 36.84617 10.22058 30 ft 4 kts 262°
2026-04-30 07:58 36.84610 10.22028 30 ft 3 kts 254°
2026-04-30 07:58 36.84605 10.22005 30 ft 2 kts 254°
2026-04-30 07:58 36.84603 10.21999 30 ft 0 kts 254°
2026-04-30 07:58 36.84603 10.21998 30 ft 0 kts 254°